Home   Weather   Montpelier   Past weeks

Flag for USA Past Weather in Montpelier, Vermont, USA — Yesterday and Last 2 Weeks

Now
31 °F

Overcast.


Feels Like: 27 °F
Forecast: 26 / 38 °F
Wind: 3 mph from South

Location: Knapp State Airport

Current Time: Jan 20, 2017 at 9:05:06 am

Latest Report: Jan 20, 2017 at 7:51 am


Visibility: 10 mi

Pressure: 30.04 "Hg

Humidity: 85%

Dew Point: 27 °F

Location of MontpelierLocation

Past Weather in Montpelier — Graph

°F

Montpelier Temperature Yesterday

Maximum temperature yesterday: 35 °F (at 11:22 am)
Minimum temperature yesterday: 29 °F (at 3:51 am)
Average temperature yesterday: 32 °F

High & Low Weather Summary for the Past Weeks

 TemperatureHumidityPressure
High53 °F (Jan 12, 7:51 pm)100% (Jan 11, 3:29 am)30.75 "Hg (Jan 11, 3:29 am)
Low-7 °F (Jan 9, 6:51 am)41% (Jan 16, 2:51 pm)29.71 "Hg (Jan 5, 7:51 am)
Average22 °F78%30.21 "Hg
* Reported Jan 5 7:51 am — Jan 20 7:51 am, Montpelier, Weather by CustomWeather, © 2017

Note: Actual official high and low records may vary slightly from our data, if they occured in-between our weather recording intervals... More about our weather records

Advertising

Montpelier Weather History for the Previous 24 Hours

Scroll right to see more
 ConditionsComfort  
Time TempWeatherWind HumidityBarometerVisibility
7:51 am
Fri, Jan 20
31 °FOvercast.3 mph85%30.04 "Hg10 mi
6:51 am31 °FOvercast.No wind85%30.05 "Hg10 mi
5:51 am31 °FOvercast.3 mph85%30.05 "Hg10 mi
4:51 am31 °FOvercast.No wind85%30.04 "Hg10 mi
3:51 am31 °FOvercast.No wind92%30.05 "Hg10 mi
2:51 am31 °FOvercast.3 mph89%30.05 "Hg10 mi
2:04 am31 °FOvercast.No wind92%30.01 "Hg10 mi
12:51 am31 °FOvercast.No wind96%30.04 "Hg10 mi
11:51 pm
Thu, Jan 19
31 °FOvercast.No wind92%30.07 "Hg10 mi
10:51 pm33 °FOvercast.5 mph82%30.09 "Hg10 mi
9:51 pm32 °FOvercast.No wind88%30.10 "Hg10 mi
8:51 pm33 °FOvercast.6 mph85%30.10 "Hg10 mi
7:51 pm32 °FOvercast.3 mph92%30.07 "Hg10 mi
6:51 pm33 °FOvercast.7 mph85%30.06 "Hg10 mi
5:51 pm33 °FOvercast.5 mph88%30.05 "Hg10 mi
4:51 pm33 °FOvercast.3 mph88%30.03 "Hg10 mi
3:51 pm33 °FOvercast.3 mph92%30.01 "Hg10 mi
2:51 pm33 °FMore clouds than sun.9 mph92%30.02 "Hg10 mi
2:29 pm34 °FCloudy.7 mph92%29.97 "Hg9 mi
1:51 pm34 °FMostly cloudy.9 mph92%30.01 "Hg10 mi
1:42 pm35 °FMore clouds than sun.10 mph88%29.97 "Hg10 mi
1:00 pm35 °FOvercast.8 mph88%29.97 "Hg10 mi
12:51 pm35 °FOvercast.6 mph88%30.01 "Hg10 mi
11:51 am35 °FOvercast.7 mph85%30.02 "Hg10 mi
11:44 am35 °FOvercast.9 mph85%29.98 "Hg10 mi
11:22 am35 °FMore clouds than sun.8 mph88%29.99 "Hg10 mi
10:51 am34 °FLight snow. Low clouds.8 mph92%30.05 "Hg7 mi
10:21 am34 °FMore clouds than sun.5 mph92%30.00 "Hg10 mi
9:51 am34 °FOvercast.No wind92%30.04 "Hg10 mi
Weather by CustomWeather, © 2017

See weather overviewHow to use our weather pages